Location: Newark
(40.7066°N, 111.8219°W)
Time: 15:33:46
(UTC+00:00)

Vanguard 3 - All Passes

Search period start: 21 November 2019 00:00
Search period end: 01 December 2019 00:00
Orbit: 507 x 3263 km, 33.4° (Epoch: 20 November)

Date Brightness Start Highest point End Pass type
(mag) Time Alt. Az. Time Alt. Az. Time Alt. Az.
21 Nov - 02:12:58 10° W 02:28:03 40° SW 02:37:36 10° SSE visible
21 Nov - 04:36:03 10° WSW 04:38:42 11° SW 04:41:05 10° SW visible
21 Nov - 18:12:49 10° SSW 18:26:43 31° SE 18:42:30 10° E daylight
21 Nov - 20:23:14 10° SW 20:41:27 57° SSE 20:59:08 10° E daylight
21 Nov - 22:37:55 10° WSW 22:57:46 68° S 23:13:00 10° ESE daylight
22 Nov - 00:55:01 10° W 01:13:01 54° SSW 01:24:43 10° SE visible
22 Nov - 03:14:12 10° W 03:25:13 24° SW 03:32:57 10° S visible
22 Nov - 17:01:37 10° S 17:11:37 19° SE 17:23:11 10° E daylight
22 Nov - 19:08:46 10° SW 19:24:57 47° SSE 19:42:52 10° E daylight
22 Nov - 21:21:34 10° WSW 21:40:50 66° S 21:58:01 10° E daylight
22 Nov - 23:37:31 10° W 23:57:04 64° SSW 00:11:00 10° ESE daylight
23 Nov - 01:55:26 10° W 02:10:59 39° SW 02:21:16 10° SSE visible
23 Nov - 17:55:32 10° SSW 18:09:07 34° SE 18:25:31 10° E daylight
23 Nov - 20:06:09 10° SW 20:23:53 60° SSE 20:42:19 10° E daylight
23 Nov - 22:20:37 10° W 22:40:23 69° S 22:56:31 10° ESE daylight
24 Nov - 00:37:29 10° W 00:55:49 52° SSW 01:08:22 10° SE visible
24 Nov - 02:56:58 10° W 03:08:08 23° SW 03:16:18 10° S visible
24 Nov - 16:43:59 10° S 16:54:07 22° SE 17:06:30 10° E daylight
24 Nov - 18:51:45 10° SW 19:07:21 49° SSE 19:25:50 10° E daylight
24 Nov - 21:04:29 10° WSW 21:23:19 68° S 21:41:19 10° E daylight
24 Nov - 23:20:09 10° W 23:39:44 63° SSW 23:54:34 10° ESE daylight
25 Nov - 01:37:57 10° W 01:53:47 37° SW 02:04:47 10° SSE visible
25 Nov - 17:38:30 10° SSW 17:51:35 37° SE 18:08:23 10° E daylight
25 Nov - 19:49:13 10° WSW 20:06:19 62° SSE 20:25:21 10° E daylight
25 Nov - 22:03:28 10° W 22:22:56 68° S 22:39:56 10° ESE daylight
26 Nov - 00:20:01 10° W 00:38:30 50° SSW 00:51:53 10° SE visible
26 Nov - 02:39:50 10° W 02:50:57 21° SW 02:59:24 10° S visible
26 Nov - 16:26:43 10° S 16:36:42 24° SE 16:49:32 10° E daylight
26 Nov - 18:34:55 10° SW 18:49:49 52° SSE 19:08:38 10° E daylight
26 Nov - 20:47:32 10° WSW 21:05:48 69° S 21:24:29 10° E daylight
26 Nov - 23:02:52 10° W 23:22:18 61° SSW 23:38:00 10° ESE daylight
27 Nov - 01:20:33 10° W 01:36:28 35° SW 01:48:07 10° SSE visible
27 Nov - 15:18:55 10° SE 15:22:37 11° SE 15:26:43 10° ESE daylight
27 Nov - 17:21:40 10° SSW 17:34:08 39° SE 17:51:05 10° E daylight
27 Nov - 19:32:28 10° WSW 19:48:48 64° SSE 20:08:16 10° E daylight
27 Nov - 21:46:26 10° W 22:05:26 68° S 22:23:11 10° ESE daylight
28 Nov - 00:02:40 10° W 00:21:04 48° SSW 00:35:14 10° SE visible
28 Nov - 02:22:52 10° W 02:33:38 19° SW 02:42:15 10° S visible
28 Nov - 16:09:45 10° S 16:19:22 26° SE 16:32:23 10° E daylight
28 Nov - 18:18:16 10° SW 18:32:22 54° SSE 18:51:20 10° E daylight
28 Nov - 20:30:45 10° WSW 20:48:18 69° S 21:07:31 10° E daylight
28 Nov - 22:45:43 10° W 23:04:48 59° SSW 23:21:16 10° SE daylight
29 Nov - 01:03:17 10° W 01:19:01 32° SW 01:31:14 10° SSE visible
29 Nov - 15:00:45 10° SSE 15:05:25 13° SE 15:10:53 10° ESE daylight
29 Nov - 17:05:02 10° SSW 17:16:47 42° SE 17:33:40 10° E daylight
29 Nov - 19:15:52 10° WSW 19:31:21 65° SSE 19:51:04 10° E daylight
29 Nov - 21:29:32 10° W 21:47:55 66° S 22:06:19 10° ESE daylight
29 Nov - 23:45:27 10° W 00:03:32 45° SSW 00:18:25 10° SE daylight
30 Nov - 02:06:09 10° W 02:16:15 17° SW 02:24:44 10° SSW visible
30 Nov - 15:52:59 10° S 16:02:08 27° SE 16:15:06 10° E daylight
30 Nov - 18:01:47 10° SW 18:15:01 57° SSE 18:33:54 10° E daylight
30 Nov - 20:14:05 10° WSW 20:30:49 69° S 20:50:25 10° ESE daylight
30 Nov - 22:28:41 10° W 22:47:14 56° SSW 23:04:23 10° SE daylight
